NOAA 16 DEB, 41539

Orbit data source: Space-Track

NOAA 16 DEB, 41539 is space debris in SSO originally from a launch on Thu, 21 Sep 2000 UTC launched from the Air Force Western Test Range (AFWTR). Debris objects in space refer to the collection of defunct objects orbiting the Earth. Examples of debris include non-operational satellites, rocket bodies, and fragments generated from explosions, collisions, or faulty payload assembly.

Loading next visibility...
Identifier
41539, 2000-055NP
Orbit
SSO
Country
Flag of USUS
Related business
Manufacturer
Unknown
Mission
Spacecraft
Bus & Motor
Unknown
Mass
Unknown
Launch date (UTC)
2000-09-21 (26 years ago)
Launch vehicle
Unknown
Launch site
Air Force Western Test Range (AFWTR)
Object type
Payload
Rocket body
Debris
Shape & HBR
Unknown shape, 0.1 m
Radar Cross Section
Medium (>0.1 m² and <1 m²)

Expand to show TLE details & history
Last TLE update: 3 days ago

TLE from 3 days ago
0 NOAA 16 DEB
1 41539U 00055NP  26170.35643785  .00006555  00000-0  16271-2 0  9999
2 41539  98.8256 313.8056 0019305  94.7548 265.5851 14.52073553538882
Epoch: 2026-06-19T08:33Z
TLE epoch observation values (Epoch: 2026-06-19T08:33:16.230Z)
Latitude
Longitude
-82.09861°
Altitude
722.92 km
Speed
7.493 km/s
True Right ascension
20h 55m 13s
True Declination
0° 00' 00"
Sunlit
Object was in full shadow at epoch
Visualization orbit readout
Latitude
Unknown
Longitude
Unknown
Altitude
Unknown
Speed
Unknown
Apparent Right ascension
Unknown
Apparent Declination
Unknown
Sunlit
N/A
Visualization observer readout
Local Sidereal Time
21:35:20
Azimuth
Unknown
Elevation
Unknown
Doppler factor
Unknown
Orbital elements
Apogee altitude
729.701 km
Perigee altitude
702.31 km
Semi-major axis
7,094.143 km
Eccentricity
0.00193
Inclination
98.8256°
RAAN
313.8056°
Arg. of periapsis
94.7548°
True anomaly
265.36458°
Mean anomaly
265.5851°
Eccentric anomaly
265.47484°
Mean motion
3.6324 °/min
Orbital period
99.11 mins
BSTAR
0.0016271
Loading maneuver chart data...
Computing Atmospheric mass density...
Loading historical data...
Loading historical data...
Loading historical data...
Loading historical data...
Loading historical data...
Loading historical data...
Loading historical data...

Documentation

Showing up to 5 results
|